Location: Novokuznetsk
(53.7500°N, 87.1000°E)
Time: 08:19:57
(UTC+06:00)

ISS - Visible Passes

Search period start: 11 December 2017 00:00
Search period end: 21 December 2017 00:00
Orbit: 402 x 407 km, 51.6° (Epoch: 10 December)

Date Brightness Start Highest point End Pass type
(mag) Time Alt. Az. Time Alt. Az. Time Alt. Az.
11 Dec -3.3 16:58:17 10° W 17:01:32 57° S 17:04:47 10° ESE visible
11 Dec -2.0 18:34:50 10° W 18:37:41 27° SSW 18:37:45 27° SSW visible
12 Dec -2.4 17:42:29 10° W 17:45:33 36° SSW 17:47:54 15° SE visible
12 Dec -0.5 19:20:10 10° WSW 19:20:34 11° SW 19:20:34 11° SW visible
13 Dec -2.8 16:50:11 10° W 16:53:21 46° SSW 16:56:32 10° ESE visible
13 Dec -1.2 18:27:05 10° WSW 18:29:20 17° SW 18:30:53 13° S visible
14 Dec -1.6 17:34:30 10° W 17:37:14 24° SSW 17:39:58 10° SSE visible
15 Dec -2.0 16:42:05 10° W 16:45:05 33° SSW 16:48:05 10° SE visible
16 Dec -0.8 17:26:48 10° WSW 17:28:47 15° SW 17:30:45 10° S visible
17 Dec -1.0 16:34:05 10° W 16:36:41 22° SSW 16:39:16 10° SSE visible
